Location: Kosice
(0.0000°N, 21.2500°E)
Time: 06:07:50
(UTC+01:00)

Meteor 2-19 Rocket - Pass Details

Date: 24 January 2021
Orbit: 935 x 959 km, 82.6° (Epoch: 04 March)

Event Time Altitude Azimuth Distance (km) Brightness Sun altitude
Rises 18:01:34 0° 181° (S) 3,626 7.8 -3.4°
Reaches altitude 10° 18:04:03 10° 179° (S) 2,681 7.1 -4.0°
Maximum altitude 18:10:12 77° 93° (E) 982 4.5 -5.4°
Drops below altitude 10° 18:16:19 10° 8° (N) 2,680 6.5 -6.9°
Sets 18:18:49 0° 7° (N) 3,624 7.2 -7.5°
